カタリナ-パンスターズ彗星

P/2013 R3 ( Catalina-PanSTARRS ) 2018

English version
Home page
Updated on June 11, 2016

---------------------------------------------------------------------

・ プロフィール

・ 軌道要素

Epoch 2018 Nov. 18.0 TT = JDT 2458440.5
T 2018 Dec. 6.44334 TT                                  MPCW
q   2.2002419            (2000.0)            P               Q
n   0.18659646     Peri.   11.10834     +0.99281833     +0.11954096
a   3.0329630      Node   342.02406     -0.11088499     +0.90490660
e   0.2745570      Incl.    0.86536     -0.04490306     +0.40847768
P   5.28
From 337 observations 2013 Sept. 15-2014 Feb. 13, mean residual 0".6.

・ 光度変化

        H = 15.5  G = 0.15

---------------------------------------------------------------------

軌道要素はM.P.E.C. 2015-M77に掲載されたものです。
光度グラフはComet for Windowsで作成したものです。

---------------------------------------------------------------------

Copyright(C) Seiichi Yoshida (comet@aerith.net). All rights reserved.